This is the latest recevied weather packets stored in our database for station/object W5CRT. If no packets are shown the sender has not sent any weather packets the latest 10 day(s).
| Time | Temp. | Humidity | Pressure | Rain* | Wind** | Luminosity | Snow |
|---|---|---|---|---|---|---|---|
| 1777901355 | 18.89° C | 70% | 1011.8 hPa | 0 mm | - | 212 W/m² | - |
| 1777901053 | 18.33° C | 71% | 1011.7 hPa | 0 mm | - | 193 W/m² | - |
| 1777900750 | 18.33° C | 71% | 1011.6 hPa | 0 mm | - | 184 W/m² | - |
| 1777900447 | 18.33° C | 71% | 1011.6 hPa | 0 mm | - | 178 W/m² | - |
| 1777900144 | 18.33° C | 72% | 1011.6 hPa | 0 mm | - | 157 W/m² | - |
| 1777899840 | 17.78° C | 72% | 1011.8 hPa | 0 mm | - | 143 W/m² | - |
| 1777899537 | 17.78° C | 73% | 1011.8 hPa | 0 mm | - | 126 W/m² | - |
| 1777899235 | 17.78° C | 73% | 1011.4 hPa | 0 mm | - | 109 W/m² | - |
| 1777898932 | 17.22° C | 73% | 1011.7 hPa | 0 mm | - | 100 W/m² | - |
| 1777898629 | 17.22° C | 73% | 1011.6 hPa | 0 mm | - | 87 W/m² | - |
| 1777898327 | 17.22° C | 73% | 1011.7 hPa | 0 mm | - | 78 W/m² | - |
| 1777898024 | 17.22° C | 73% | 1011.7 hPa | 0 mm | - | 76 W/m² | - |
| 1777897720 | 17.22° C | 74% | 1011.6 hPa | 0 mm | - | 49 W/m² | - |
| 1777897417 | 17.22° C | 73% | 1011.3 hPa | 0 mm | - | 65 W/m² | - |
| 1777897112 | 16.67° C | 73% | 1011.5 hPa | 0 mm | - | 65 W/m² | - |
| 1777896809 | 16.67° C | 74% | 1011.4 hPa | 0 mm | - | 56 W/m² | - |
| 1777896506 | 16.67° C | 74% | 1011.3 hPa | 0 mm | - | 48 W/m² | - |
| 1777896203 | 16.11° C | 75% | 1011.2 hPa | 0 mm | - | 40 W/m² | - |
| 1777895901 | 16.11° C | 75% | 1011.4 hPa | 0 mm | - | 33 W/m² | - |
| 1777895599 | 16.11° C | 75% | 1011.3 hPa | 0 mm | - | 24 W/m² | - |
| 1777895296 | 15.56° C | 75% | 1011.3 hPa | 0 mm | - | 18 W/m² | - |
| 1777894994 | 15.56° C | 75% | 1011.1 hPa | 0 mm | - | 11 W/m² | - |
| 1777894691 | 16.11° C | 75% | 1011.1 hPa | 0 mm | - | 6 W/m² | - |
| 1777894387 | 16.11° C | 74% | 1011.3 hPa | 0 mm | - | 3 W/m² | - |
| 1777894085 | 16.11° C | 74% | 1011.3 hPa | 0 mm | - | 1 W/m² | - |
* Rain latest hour (hover to see other rain measurements)
** Current wind speed in m/s (hover to see current wind gust speed)